Flag for Slovenia Weather past 2 weeks in Ljubljana, Slovenia

Now
43 °F

Passing clouds.


Feels Like: 39 °F
Forecast: 31 / 47 °F
Wind: 7 mph from East

Location: Ljubljana / Bezigrad

Current Time: Mar 5, 2015 at 8:15:54 PM

Latest Report: Mar 5, 2015 at 7:00 PM


Visibility: 31 mi

Pressure: 30.28 "Hg

Humidity: 37%

Dew point: 18 °F

Location of LjubljanaLocation

Historic Weather in Ljubljana — Graph

°F

Ljubljana temperature yesterday

Maximum temperature yesterday: 52 °F (at 2:00 PM)
Minimum temperature yesterday: 33 °F (at 3:00 AM)
Average temperature yesterday: 41 °F

Past Weeks' High & Low Weather Summary

 TemperatureHumidityPressure
High55 °F (Mar 3, 4:00 PM)100% (Mar 3, 9:00 AM)30.71 "Hg (Mar 3, 9:00 AM)
Low24 °F (Feb 19, 7:00 AM)30% (Mar 5, 4:00 PM)29.66 "Hg (Feb 24, 5:00 AM)
Average41 °F75%30.04 "Hg
* Reported Feb 18 7:00 PM — Mar 5 7:00 PM, Ljubljana, Weather by CustomWeather, © 2015

Note: Actual official high and low records may vary slightly from our data, if they occured in-between our weather recording intervals... More about our weather records

Advertising

Ljubljana weather history for previous 24 hours

 ConditionsComfort  
Time TempWeatherWind HumidityBarometerVisibility
7:00 PM
Thu, Mar 5
43 °FPassing clouds.7 mph37%30.28 "Hg31 mi
6:00 PM44 °FPassing clouds.7 mph36%30.25 "Hg31 mi
5:00 PM46 °FPartly sunny.8 mph32%30.23 "Hg31 mi
4:00 PM47 °FPartly sunny.8 mph30%30.22 "Hg31 mi
3:00 PM48 °FPartly sunny.8 mph31%30.20 "Hg31 mi
2:00 PM48 °FPartly sunny.9 mph31%30.20 "Hg31 mi
1:00 PM46 °FPartly sunny.7 mph38%N/A19 mi
12:00 PM46 °FCool.7 mph39%30.25 "HgN/A
11:00 AM43 °FPartly sunny.8 mph42%30.28 "Hg17 mi
10:00 AM42 °FPartly sunny.7 mph48%30.28 "Hg17 mi
9:00 AMN/APartly sunny.N/AN/AN/A17 mi
8:00 AM41 °FOvercast.7 mph49%30.28 "Hg17 mi
7:00 AM40 °FOvercast.6 mph51%30.28 "Hg17 mi
6:00 AM40 °FOvercast.5 mph48%30.28 "Hg16 mi
5:00 AM41 °FQuite cool.7 mph49%30.27 "HgN/A
3:00 AM40 °FChilly.3 mph62%30.27 "HgN/A
2:00 AM40 °FChilly.5 mph65%30.29 "HgN/A
1:00 AM40 °FChilly.5 mph71%30.30 "HgN/A
12:00 AM38 °FChilly.3 mph80%30.29 "HgN/A
11:00 PM
Wed, Mar 4
38 °FChilly.3 mph85%30.30 "HgN/A
9:00 PM41 °FLight rain. Overcast.5 mph74%30.26 "Hg12 mi
8:00 PM43 °FQuite cool.6 mph69%30.24 "HgN/A
Weather by CustomWeather, © 2015

See weather overviewHow to use our weather pages